Temp
17 17 17 17 16 16 16 15 15 15 15 15 14 14 14 14 13 13 13 13 13 13 13 13 13 13 13 13 13 13 14 14 13 13 13 13 12 12 12 12 12 12 12 12 12 12 11 11 11 11 11 11 10 10 10 9 9 9 9 9 9 8 8 8 8 7 7 7 7
17 17 17 16 16 16 15 15 15 15 15 15 14 14 14 14 13 13 13 13 13 13 13 13 13 13 13 13 13 13 13 14 14 13 13 12 12 12 12 12 12 12 12 12 12 12 11 11 11 11 11 10 10 10 10 9 9 9 9 9 8 8 8 8 7 7 7 7 7
17 17 17 16 16 15 15 15 15 15 15 15 14 14 14 14 14 13 13 13 13 13 13 13 13 13 13 13 13 13 13 13 14 13 13 12 12 12 12 12 12 12 12 12 12 12 11 11 11 11 11 10 10 10 10 9 9 9 9 9 8 8 8 8 7 7 7 7 7
17 17 16 16 15 15 15 15 15 15 15 14 14 14 14 14 14 14 14 14 13 13 13 13 13 13 13 13 13 13 13 13 13 13 13 12 12 12 12 12 12 12 12 12 12 11 11 11 11 11 10 10 10 10 9 9 9 9 8 8 8 8 8 8 7 7 7 7 7
17 17 16 16 15 15 15 15 15 15 15 14 14 14 14 14 14 14 14 13 13 13 13 13 13 13 13 12 13 13 13 13 13 13 12 12 12 11 12 12 12 12 12 12 11 11 11 11 11 10 10 10 10 10 9 9 9 8 8 8 8 8 8 7 7 7 7 7 6
17 16 16 15 15 15 15 15 15 15 14 14 14 14 14 14 14 14 14 13 13 13 13 13 13 13 12 12 12 12 13 13 13 12 12 12 11 11 11 12 12 12 12 11 11 11 11 11 10 10 10 10 10 9 9 9 8 8 8 8 8 8 7 7 7 7 7 6 6
17 16 16 15 15 15 15 15 15 15 14 14 14 14 14 14 14 14 14 14 13 13 13 13 13 12 12 12 12 12 12 12 12 12 12 11 11 11 11 11 11 11 11 11 11 11 11 10 10 10 10 10 9 9 9 9 8 8 8 8 8 7 7 7 7 7 6 6 6
16 16 15 15 15 15 15 15 14 14 14 14 14 14 14 14 14 14 14 13 13 13 13 13 12 12 12 12 12 12 12 12 12 12 11 11 11 11 11 11 11 11 11 11 11 11 10 10 10 10 10 9 9 9 9 8 8 8 8 8 8 7 7 7 7 6 6 6 6
16 15 15 15 15 14 14 14 14 14 14 14 14 14 14 14 14 14 13 13 13 13 13 13 12 12 12 12 12 12 12 12 12 12 11 11 11 11 11 11 11 11 11 11 11 11 10 10 10 10 9 9 9 9 8 8 8 8 8 8 7 7 7 7 6 6 6 6 6
15 15 15 15 14 14 14 14 14 14 14 14 14 14 14 14 14 14 13 13 13 13 13 13 12 12 12 12 12 12 12 12 12 12 11 11 11 11 11 11 11 11 11 10 10 10 10 10 10 10 9 9 9 8 8 8 8 8 7 7 7 7 7 7 6 6 6 6 5
15 15 15 14 14 14 14 14 14 14 14 14 14 14 14 14 13 13 13 13 13 13 13 12 12 12 12 12 12 12 12 12 12 11 11 11 11 11 11 11 11 11 10 10 10 10 10 10 10 9 9 9 9 8 8 8 8 7 7 7 7 7 7 6 6 6 6 5 5
15 15 14 14 14 14 14 14 14 14 14 14 14 13 13 13 13 13 13 13 13 13 12 12 12 12 12 12 12 12 12 12 12 11 11 11 11 10 10 10 10 10 10 10 10 10 10 10 10 9 9 9 8 8 8 8 7 7 7 7 7 7 6 6 6 6 6 5 5
14 14 14 14 14 14 14 14 13 13 13 13 13 13 13 13 13 13 13 13 13 12 12 12 12 12 12 12 12 12 12 11 11 11 11 10 10 10 10 10 10 10 10 10 10 10 10 10 9 9 9 8 8 8 8 7 7 7 7 7 7 7 6 6 6 6 5 5 5
14 14 14 14 14 13 13 13 13 13 13 13 13 13 13 13 13 13 13 12 12 12 12 12 12 12 12 12 11 11 11 11 11 11 10 10 10 10 10 10 10 10 10 10 10 10 9 9 9 9 9 8 8 8 8 7 7 7 7 7 7 6 6 6 6 6 5 5 5
14 14 13 13 13 13 13 13 13 13 13 13 13 13 13 13 13 12 12 12 12 12 12 12 11 11 11 11 11 11 11 11 11 10 10 10 10 10 10 10 10 10 10 9 9 9 9 9 9 9 9 8 8 8 8 7 7 7 7 7 7 6 6 6 6 5 5 5 5
13 13 13 13 13 13 13 13 13 13 13 13 13 12 12 12 12 12 12 12 12 12 11 11 11 11 11 11 11 11 11 11 11 10 10 10 10 10 10 10 10 9 9 9 9 9 9 9 9 9 8 8 8 8 8 7 7 7 7 7 6 6 6 6 6 5 5 5 5
13 13 13 13 13 13 13 13 12 12 12 12 12 12 12 12 12 12 12 12 11 11 11 11 11 11 11 11 11 11 11 11 10 10 10 10 10 10 10 10 9 9 9 9 9 9 9 9 8 8 8 8 8 8 7 7 7 7 7 6 6 6 6 6 5 5 5 5 4
13 13 13 13 12 12 12 12 12 12 12 12 12 12 12 12 12 12 12 11 11 11 11 11 11 11 11 11 10 10 10 10 10 10 10 10 10 10 9 9 9 9 9 9 9 9 9 9 8 8 8 8 8 7 7 7 7 7 7 6 6 6 6 5 5 5 5 5 4
13 13 13 12 12 12 12 12 12 12 12 12 12 12 12 12 12 12 11 11 11 11 11 11 11 11 11 11 10 10 10 10 10 10 10 10 10 9 9 9 9 9 9 9 9 9 9 8 8 8 8 7 7 7 7 7 7 7 6 6 6 6 6 5 5 5 5 5 4
13 13 13 12 12 12 12 12 12 12 12 12 12 12 12 12 11 11 11 11 11 11 11 11 11 10 10 10 10 10 10 10 10 10 10 10 9 9 9 9 9 9 9 9 9 9 8 8 8 8 7 7 7 7 7 7 6 6 6 6 6 6 5 5 5 5 5 4 4
13 13 13 12 12 12 12 12 12 12 12 12 12 12 11 11 11 11 11 11 11 11 11 11 11 10 10 10 10 10 10 10 10 10 10 10 9 9 9 9 9 9 9 9 8 8 8 8 8 8 7 7 7 7 7 6 6 6 6 6 5 5 5 5 5 5 4 4 4
13 13 12 12 12 12 12 11 11 11 11 11 11 11 11 11 11 11 11 11 10 10 10 10 10 10 10 10 10 10 10 10 10 10 10 10 9 9 9 9 9 9 9 8 8 8 8 8 8 8 7 7 7 7 7 6 6 6 5 5 5 5 5 5 4 4 4 4 4
13 12 12 12 12 12 11 11 11 11 11 11 11 11 11 11 11 11 11 10 10 10 10 10 10 10 10 10 10 10 10 10 10 10 10 9 9 9 9 9 9 9 9 9 9 8 8 8 8 8 7 7 7 7 6 6 6 5 5 5 5 4 4 4 4 4 4 4 4
12 12 12 12 12 11 11 11 11 11 11 11 11 11 11 11 10 10 10 10 10 10 10 10 10 10 10 10 10 10 10 10 10 10 9 9 9 9 9 9 9 9 9 9 9 8 8 8 8 8 7 7 7 6 6 6 6 5 5 5 5 4 4 4 4 4 4 4 4
12 12 12 11 11 11 11 11 11 11 11 11 11 10 10 10 10 10 10 10 10 10 10 10 10 10 10 10 10 10 10 10 10 9 9 9 9 9 9 9 9 9 9 9 8 8 8 8 8 7 7 7 6 6 6 6 5 5 5 5 4 4 4 4 4 4 4 4 4
11 11 11 11 11 11 11 11 11 10 10 10 10 10 10 10 10 10 10 10 9 9 9 9 10 10 10 10 10 10 10 9 9 9 9 9 9 9 9 8 9 9 9 9 8 8 8 8 7 7 7 6 6 6 6 5 5 5 5 4 4 4 3 3 3 3 3 3 3
11 11 11 11 11 11 10 10 10 10 10 10 10 10 10 10 9 9 9 9 9 9 9 9 10 10 10 10 10 10 9 9 9 9 9 9 9 9 8 8 8 8 8 8 8 8 8 7 7 6 6 6 6 5 5 5 5 4 4 4 3 3 3 3 3 3 3 3 3
10 10 10 10 10 10 10 10 10 10 10 10 10 9 9 9 9 9 9 9 9 9 9 9 10 10 10 10 10 10 10 9 9 9 9 9 9 9 8 8 8 8 8 8 8 8 7 7 6 6 6 5 5 5 5 5 4 4 4 3 3 3 3 3 3 3 3 2 2
10 10 10 10 10 10 10 10 10 9 9 9 9 9 9 9 9 9 9 9 9 9 9 9 9 9 9 9 10 10 10 9 9 9 9 9 9 9 8 8 8 8 8 8 8 7 7 6 6 6 6 5 5 5 5 4 4 4 3 3 3 3 3 3 3 2 2 2 2
9 9 9 9 9 9 9 9 9 9 9 9 9 9 9 9 9 9 9 9 9 9 9 9 9 9 9 10 10 10 10 9 9 9 9 9 8 8 8 8 8 8 8 8 7 7 7 6 6 6 6 5 5 5 5 4 4 4 4 3 3 3 3 3 3 3 3 3 3
9 9 9 9 9 9 9 9 9 9 9 9 8 8 8 8 8 9 9 9 9 9 9 9 9 9 9 10 10 9 9 9 9 9 9 8 8 8 8 8 8 8 7 7 7 6 6 6 6 6 6 5 5 5 5 5 4 4 4 3 3 3 3 3 3 3 3 3 3
8 8 8 8 8 8 8 8 8 8 8 8 8 8 8 8 8 8 8 8 9 9 9 9 9 9 9 9 9 9 9 9 9 9 8 8 8 8 8 7 7 7 7 7 6 6 6 6 6 6 6 5 5 5 5 5 4 4 4 4 3 3 3 3 3 3 3 3 3
8 8 8 8 8 8 8 8 8 8 8 8 8 8 8 8 8 8 8 8 8 8 9 9 9 9 9 9 9 9 9 9 8 8 8 8 7 7 7 7 7 7 7 6 6 6 6 6 6 6 5 5 5 5 5 4 4 4 4 3 3 3 3 3 3 3 2 2 2
7 8 8 8 8 8 8 8 8 8 8 8 8 8 8 8 8 8 8 8 8 8 9 9 9 9 9 9 8 8 8 8 8 7 7 7 7 7 6 6 6 6 6 6 6 6 6 6 5 5 5 5 5 5 5 4 4 4 4 3 3 3 3 3 3 2 2 2 2
7 7 7 7 7 8 8 8 8 8 8 8 7 7 8 8 8 8 8 8 9 9 9 9 9 9 8 8 8 8 8 8 7 7 7 7 6 6 6 6 6 6 6 6 6 6 6 5 5 5 5 5 5 5 4 4 4 4 4 3 3 3 3 3 2 2 2 2 2
7 7 7 7 7 7 8 8 8 8 7 7 7 7 7 8 8 8 8 9 9 9 9 9 8 8 8 8 8 8 7 7 7 7 7 7 6 6 6 6 6 6 6 6 6 6 5 5 5 5 5 5 5 5 4 4 4 4 4 3 3 3 3 3 2 2 2 2 2
7 7 7 7 7 7 7 7 7 7 7 7 7 8 8 8 8 8 8 9 8 8 8 8 8 8 8 8 7 7 7 7 7 6 6 6 6 6 6 6 6 6 6 6 6 5 5 5 5 5 5 5 5 5 4 4 4 4 3 3 3 3 3 2 2 2 2 2 2
7 7 7 7 7 7 7 7 7 7 8 8 8 8 8 8 8 8 8 8 8 8 8 8 8 7 7 7 7 7 7 7 6 6 6 6 6 6 6 6 6 6 6 5 5 5 5 5 5 5 5 5 5 5 4 4 4 4 3 3 3 3 2 2 2 2 2 2 2
8 8 8 7 7 7 7 8 8 8 8 8 8 8 8 8 8 8 8 8 8 7 7 7 7 7 7 7 7 6 6 6 6 6 6 6 6 6 5 5 5 5 5 5 5 5 5 5 5 5 5 5 5 4 4 4 4 4 3 3 3 2 2 2 2 2 2 2 2
8 8 8 8 8 8 8 8 8 8 8 8 8 8 8 7 7 7 7 7 7 7 7 7 7 7 7 6 6 6 6 6 6 6 6 6 5 5 5 5 5 5 5 5 5 5 5 5 5 5 5 4 4 4 4 4 4 3 3 3 3 2 2 2 2 2 2 2 2
8 8 8 8 8 8 8 8 8 8 8 8 8 8 8 7 7 7 7 7 7 7 7 7 7 7 6 6 6 6 6 6 6 6 5 5 5 5 5 5 5 5 5 5 5 5 5 5 4 4 4 4 4 4 4 4 3 3 3 3 2 2 2 2 2 2 2 2 2
Height
807 808 808 808 809 809 811 812 813 813 814 816 817 818 819 820 821 821 822 823 824 825 826 827 828 829 830 831 832 833 833 834 835 836 837 837 838 838 839 840 840 840 840 841 841 842 842 842 843 843 843 843 844 844 844 845 845 845 845 845 845 845 845 845 844 844 844 844 844
806 807 807 807 808 808 810 811 812 813 813 814 815 816 817 818 819 820 821 822 823 824 825 826 827 828 829 830 831 832 833 833 834 835 835 836 837 837 838 838 838 839 839 839 840 840 841 841 841 842 842 842 843 843 843 843 843 843 843 843 843 843 843 843 843 843 843 843 843
805 806 806 806 806 807 808 809 810 811 812 813 814 815 816 817 818 819 820 821 822 823 824 825 826 827 828 828 829 830 831 832 833 833 834 835 835 836 837 837 837 838 838 838 838 839 839 840 840 840 841 841 841 842 842 842 842 842 842 842 842 842 842 842 842 842 842 842 841
804 805 805 804 805 806 807 808 809 810 811 813 813 814 815 816 817 818 819 820 821 822 823 824 825 826 827 827 828 829 830 831 831 832 833 833 834 834 835 835 836 836 836 837 837 838 838 838 839 839 839 840 840 840 840 841 841 841 841 841 841 841 841 841 841 841 841 840 840
803 803 803 803 804 805 806 807 808 809 810 811 813 813 814 815 816 817 818 819 820 821 822 823 823 824 825 826 827 828 828 829 830 831 831 832 833 833 833 834 834 834 835 835 836 836 837 837 837 838 838 838 839 839 839 840 840 840 840 840 840 840 840 840 840 839 839 839 838
802 802 802 803 803 804 805 806 807 808 809 810 811 813 813 814 815 816 817 818 818 819 821 822 823 823 824 825 825 826 827 828 828 829 830 830 831 832 832 832 833 833 833 834 834 835 835 836 836 836 837 837 838 838 838 838 839 839 839 839 838 838 838 838 838 838 838 838 837
801 801 801 802 803 803 804 805 806 807 808 809 810 811 812 813 814 815 816 816 818 818 819 820 821 822 823 823 824 825 826 826 827 828 828 829 830 830 831 831 831 832 832 833 833 833 834 834 835 835 835 836 836 837 837 837 837 838 838 837 837 837 837 837 837 837 837 836 836
800 800 800 801 802 802 803 804 805 806 807 808 809 810 811 812 813 814 815 816 816 817 818 819 820 820 821 822 823 823 824 825 826 826 827 828 828 829 829 830 830 830 831 831 832 832 833 833 833 833 834 834 835 835 835 836 836 836 836 836 836 836 836 836 836 835 835 835 834
799 799 800 800 801 802 802 803 804 805 806 807 808 809 810 811 812 813 813 814 815 816 817 818 818 819 819 820 821 822 823 823 824 825 826 827 827 828 828 828 829 829 829 830 830 831 831 832 832 832 833 833 833 834 834 834 834 834 834 834 835 835 835 834 834 834 834 833 833
798 798 799 799 800 801 802 803 803 804 805 806 807 808 809 810 811 812 812 813 814 815 816 816 817 818 818 819 820 821 821 822 823 823 824 825 826 826 827 827 827 828 828 828 829 829 830 830 831 831 831 832 832 833 833 833 833 833 833 833 833 833 833 833 833 833 833 832 832
797 798 798 798 799 800 801 802 803 803 804 805 806 807 808 808 809 810 811 812 813 813 814 815 815 816 817 818 818 819 820 821 822 823 823 824 825 825 825 826 826 827 827 827 828 828 828 829 829 830 830 830 831 831 832 832 832 832 832 832 832 832 832 831 831 831 831 831 830
796 797 797 798 798 799 800 801 802 803 803 804 805 806 807 807 808 809 810 811 811 812 813 813 814 815 816 817 818 818 819 820 821 822 823 823 824 824 824 825 825 826 826 826 827 827 827 828 828 828 829 829 829 830 830 830 830 830 830 830 830 830 830 830 830 830 829 829 829
796 796 797 797 798 799 799 800 801 802 803 803 804 805 806 806 807 808 809 809 810 811 812 813 813 814 815 816 817 818 818 819 820 821 822 822 823 823 824 824 824 825 825 825 825 826 826 826 827 827 828 828 828 828 829 829 829 829 829 829 829 829 828 828 828 828 828 828 827
795 796 796 797 798 798 799 800 800 801 802 803 803 804 805 806 806 807 808 808 809 810 811 812 813 813 814 815 816 817 818 818 819 820 821 822 822 823 823 823 823 824 824 824 824 825 825 825 825 826 826 827 827 827 827 827 828 828 828 828 827 827 827 827 827 827 826 826 825
794 795 795 796 797 798 798 799 800 800 801 802 803 803 804 805 806 806 807 807 808 809 810 811 812 813 813 814 815 816 817 818 819 819 820 821 821 822 822 822 823 823 823 823 823 824 824 824 824 825 825 825 825 826 826 826 826 826 826 826 826 825 825 825 825 825 824 824 823
794 794 795 795 796 796 797 798 799 800 800 801 802 803 803 804 805 805 806 807 808 808 809 810 811 812 813 814 815 815 816 817 818 819 819 820 820 821 821 822 822 822 823 823 823 823 823 823 823 823 823 824 824 824 824 824 824 824 824 824 824 824 824 823 823 823 823 823 822
793 793 793 794 795 795 796 797 798 799 800 800 801 802 803 803 804 805 805 806 807 808 808 809 810 811 812 813 814 815 815 816 817 818 818 819 819 820 820 821 821 821 822 822 822 822 822 822 822 822 822 823 823 823 823 823 823 823 823 823 823 823 822 822 822 822 821 821 820
792 793 793 793 793 794 795 796 797 798 799 800 801 801 802 803 803 804 805 805 806 807 808 809 810 810 811 812 813 814 815 815 816 817 818 818 819 819 820 820 820 821 821 821 821 821 821 821 821 821 821 821 821 821 821 821 821 821 821 821 821 821 820 820 820 820 819 819 818
791 792 792 792 793 793 795 796 797 798 798 799 800 801 801 802 803 803 804 805 805 806 807 808 809 810 811 811 812 813 814 815 815 816 817 818 818 819 819 819 820 820 820 820 820 820 820 820 820 820 820 820 819 819 819 820 820 820 819 819 819 819 818 818 818 818 817 817 816
791 791 791 792 792 793 794 795 796 797 798 799 800 800 801 801 802 803 803 804 805 806 806 807 808 809 810 811 811 812 813 814 815 816 816 817 818 818 818 818 819 819 819 819 819 819 819 819 819 818 818 818 818 818 818 818 818 818 818 817 817 817 816 816 816 815 815 814 814
790 791 791 791 792 793 794 795 796 797 798 798 799 800 800 801 802 802 803 803 804 805 806 807 808 808 809 810 811 812 813 813 814 815 816 816 817 817 818 818 818 818 818 818 818 818 818 818 818 817 817 817 817 817 817 816 816 816 816 815 815 815 814 814 814 813 813 812 812
790 790 790 791 792 793 793 795 796 797 798 798 799 799 800 800 801 802 803 803 804 805 805 806 807 808 808 809 810 811 812 813 814 814 815 815 816 816 817 817 817 817 817 817 817 817 816 816 816 816 816 816 815 815 815 815 815 814 814 813 813 813 812 812 811 811 811 810 810
789 790 790 791 791 792 793 794 795 796 797 798 798 799 799 800 801 801 802 803 803 804 805 806 807 808 808 809 810 811 812 812 813 813 814 814 815 815 816 816 816 816 816 816 815 815 815 815 815 814 814 814 814 814 813 813 813 813 812 812 811 811 810 810 809 809 808 808 808
789 789 790 790 791 792 793 794 795 796 796 797 798 798 798 799 800 801 802 802 803 804 805 805 806 807 808 809 810 810 811 812 812 813 813 813 814 814 814 815 815 814 814 814 814 814 814 813 813 813 813 813 812 812 812 812 811 811 810 809 809 808 808 807 807 807 806 806 805
789 789 790 790 791 792 793 793 794 795 796 796 797 797 798 799 799 800 801 802 803 803 804 805 806 807 808 808 809 810 810 811 811 812 812 813 813 813 813 813 813 813 813 813 813 813 813 812 812 812 811 811 811 810 810 809 809 808 808 808 807 806 805 805 804 804 804 803 803
788 789 790 790 791 792 793 793 794 795 795 796 796 797 798 798 799 800 801 802 803 803 804 805 806 807 807 808 808 809 809 810 810 811 811 811 812 812 812 812 812 812 812 812 811 811 811 811 810 810 809 809 808 808 808 807 807 806 806 805 804 804 803 803 802 801 801 801 801
788 789 790 790 791 792 792 793 794 794 795 795 796 797 797 798 799 799 800 801 802 803 804 805 805 806 807 807 808 808 808 809 809 810 810 810 811 811 811 811 810 810 810 810 810 810 809 809 809 808 808 807 807 806 806 805 804 804 803 803 802 802 801 800 799 799 799 799 798
788 789 790 790 791 792 792 793 794 794 794 795 796 797 797 798 799 799 800 801 802 803 804 804 805 806 806 807 807 807 808 808 809 809 809 809 810 809 809 809 809 809 809 809 808 808 808 808 807 807 807 806 805 804 803 803 802 802 801 801 800 799 799 798 798 797 797 797 796
788 789 790 790 791 792 792 793 793 794 795 795 796 797 797 798 799 799 800 801 802 803 803 804 804 805 805 806 806 807 807 808 808 808 808 808 808 808 808 808 808 808 808 808 807 807 806 806 806 805 805 805 804 803 802 801 801 800 799 798 798 798 797 796 796 796 795 795 795
788 789 790 791 791 792 793 793 794 794 795 796 796 797 798 798 799 800 801 801 802 803 803 803 804 804 805 805 806 806 807 807 807 808 808 807 807 807 807 807 807 806 806 806 806 805 805 804 804 804 803 803 803 802 801 800 799 798 797 797 796 795 795 795 794 794 793 793 793
789 789 790 791 792 792 793 794 794 795 795 796 797 797 798 798 799 800 801 801 802 802 803 803 804 804 804 805 805 806 806 806 806 806 806 806 806 805 805 805 805 805 804 804 804 803 803 803 803 802 802 801 801 800 799 798 797 796 795 794 794 793 793 793 793 792 792 792 791
789 790 791 791 792 793 793 794 795 795 796 796 797 798 798 799 799 800 801 801 802 802 803 803 803 804 804 805 805 805 805 805 805 805 805 805 804 804 804 803 803 803 803 803 802 802 802 801 801 800 800 799 799 798 797 796 795 794 793 792 792 791 791 791 791 790 790 790 790
790 790 791 792 793 793 794 795 795 796 796 797 797 798 798 799 800 800 801 802 802 802 803 803 803 803 804 804 804 804 804 804 804 804 804 803 803 803 802 802 801 801 801 801 800 800 800 799 799 798 798 797 797 796 794 793 793 792 791 790 790 789 789 789 788 788 788 788 788
790 791 792 792 793 794 794 795 795 796 797 797 798 798 799 799 800 801 801 802 802 802 803 803 803 803 803 803 803 803 803 803 803 803 803 802 802 802 801 800 799 799 799 799 799 798 798 797 797 796 796 795 794 793 792 791 791 790 789 788 788 787 787 787 787 786 786 786 786
791 791 792 793 793 794 795 795 796 797 797 798 798 799 799 800 800 801 801 802 802 802 803 803 803 803 803 803 803 803 803 802 802 802 801 801 801 800 799 798 798 798 798 798 797 797 796 796 795 794 794 793 792 791 790 789 788 788 787 786 786 785 785 785 784 784 784 784 783
791 792 793 793 794 795 795 796 796 797 798 798 798 799 800 800 801 801 802 802 802 802 802 802 802 802 802 802 802 802 801 801 801 800 800 800 799 798 798 797 796 796 796 796 795 795 794 794 793 793 792 791 790 789 788 788 787 786 785 784 783 783 783 783 782 782 782 782 782
792 793 793 794 795 795 796 797 797 798 798 798 799 799 800 800 801 801 801 802 802 802 802 802 801 801 801 801 801 800 800 800 799 798 798 798 797 797 796 795 794 794 794 794 793 793 793 792 792 791 791 790 788 788 787 786 785 784 783 782 781 781 781 780 780 780 780 780 779
793 794 794 795 795 796 797 797 798 798 798 799 799 800 800 800 801 801 801 801 801 801 801 801 800 800 800 800 799 798 798 798 798 797 796 796 795 795 794 793 792 792 792 792 792 791 791 790 790 789 789 788 787 786 785 784 783 782 781 780 779 779 779 778 778 778 778 778 777
794 795 795 796 796 797 797 798 798 798 799 799 800 800 800 800 800 800 800 800 800 800 800 800 799 799 798 798 798 797 797 796 796 796 795 794 794 793 793 792 791 790 790 790 790 790 789 789 788 788 787 787 785 784 783 782 781 780 779 778 778 777 777 777 777 776 776 775 775
795 796 796 796 797 798 798 798 799 799 799 799 800 800 800 800 800 800 800 800 799 799 799 798 798 797 797 797 796 796 795 794 794 794 794 793 793 792 792 791 789 789 788 788 788 788 788 787 786 786 785 785 783 782 781 780 779 778 777 777 776 775 774 774 774 774 774 773 773
796 796 797 797 798 798 798 798 799 799 799 799 799 799 799 799 799 799 799 799 798 798 798 797 797 796 796 795 795 794 794 793 793 793 792 792 791 791 790 789 788 787 787 787 787 786 786 785 784 784 783 783 782 780 780 779 778 776 775 774 774 774 773 772 772 772 772 772 771
Wind_Speed
25 25 25 26 26 26 26 26 26 27 28 28 27 27 26 26 26 25 26 26 26 26 27 27 27 26 26 27 27 27 27 26 24 23 21 21 20 19 18 17 16 15 14 13 13 12 12 12 11 11 10 9 8 7 7 7 7 8 8 8 8 8 9 9 10 10 11 11 11
24 24 24 25 25 26 26 25 25 25 26 27 27 27 27 26 26 25 25 26 26 26 26 26 26 26 26 27 27 27 27 26 25 23 22 21 20 20 19 18 16 15 14 14 13 13 13 12 12 11 10 9 9 8 7 7 8 8 8 9 9 9 9 10 11 11 12 12 12
24 23 23 23 24 25 25 25 25 25 25 26 26 26 26 26 26 26 25 26 25 25 25 25 25 26 26 26 27 27 27 26 25 23 22 22 21 20 19 18 17 16 15 14 14 14 13 13 12 11 10 10 9 8 8 8 8 9 9 10 10 10 10 11 12 12 13 13 14
23 23 22 22 23 24 25 25 25 24 24 25 25 25 26 26 26 25 25 25 25 25 25 25 25 25 25 26 27 27 27 26 25 24 23 22 22 21 20 19 17 16 16 15 15 14 14 13 12 12 11 10 10 9 8 8 8 9 10 10 11 11 12 12 13 13 14 14 14
23 22 22 22 22 24 25 25 25 24 24 24 24 25 25 25 25 25 24 24 24 25 25 25 24 25 25 26 26 26 26 26 25 24 23 23 22 22 20 19 18 17 16 16 15 15 14 13 13 12 12 11 10 10 9 9 9 10 10 11 12 12 13 13 14 14 14 14 15
21 21 21 21 21 22 24 24 25 25 24 24 24 25 25 25 25 25 24 24 24 24 24 24 24 24 25 25 26 26 26 26 25 24 24 23 23 22 21 20 18 17 16 16 16 15 15 14 13 13 12 12 11 11 10 10 10 10 11 12 13 13 14 14 14 14 15 15 15
20 20 20 20 21 22 23 24 24 24 24 24 24 25 25 25 25 25 24 24 24 23 23 23 24 24 25 26 26 26 26 26 25 25 24 24 23 23 21 20 19 18 17 16 16 16 15 15 14 13 13 13 12 11 11 11 11 11 12 13 13 14 14 15 15 15 15 16 16
19 19 19 20 21 22 23 24 24 24 24 24 24 24 25 25 25 25 24 24 24 23 23 24 24 25 26 26 27 27 27 26 26 25 25 24 24 23 22 20 19 18 17 17 16 16 15 15 14 14 14 13 13 12 12 11 11 12 12 13 14 14 15 15 16 16 16 17 18
19 19 19 19 20 21 22 23 24 24 24 24 25 25 25 25 25 25 24 24 24 24 24 24 25 26 26 27 27 27 27 27 27 26 26 25 24 23 22 21 20 19 18 17 17 16 16 15 15 14 14 13 13 13 12 12 12 13 13 14 15 15 16 16 17 17 17 18 19
21 20 20 20 20 21 22 23 23 24 24 24 25 25 25 25 25 25 24 24 24 24 24 25 26 26 27 27 27 27 27 27 27 27 26 25 25 24 23 21 20 19 19 18 17 16 16 16 15 15 14 14 14 13 13 13 13 13 14 15 16 16 17 18 18 18 19 19 20
22 22 21 21 21 21 22 22 23 23 24 24 24 24 25 25 25 24 24 24 24 25 25 26 26 27 27 27 27 27 27 27 27 27 26 26 25 24 23 21 20 20 19 18 17 17 16 16 16 15 15 15 14 14 13 13 14 14 15 16 17 18 19 19 20 20 20 20 20
23 23 22 22 22 22 22 22 22 23 23 23 24 24 24 24 24 24 24 24 25 25 26 26 27 27 28 28 27 27 27 27 26 26 26 25 24 23 22 21 20 20 19 18 18 17 17 16 16 16 15 15 15 15 15 15 15 15 16 17 18 19 20 21 21 21 21 21 21
23 23 23 22 22 22 22 22 22 22 23 23 23 23 23 24 24 24 24 24 25 25 26 26 27 27 27 27 27 27 26 26 25 25 25 24 24 23 22 21 20 19 19 18 18 17 17 16 16 16 16 16 16 16 16 16 16 16 17 18 19 20 21 22 22 22 22 22 22
21 22 22 23 22 22 22 22 22 22 22 22 22 22 23 23 23 23 24 24 25 25 26 26 26 26 27 27 26 26 26 25 24 24 24 23 23 22 22 21 20 19 19 18 17 17 17 17 17 17 17 17 17 17 17 17 17 17 18 19 20 21 22 23 23 22 22 22 23
20 21 22 22 22 22 22 22 22 22 22 22 22 22 22 22 23 23 24 24 24 25 25 25 25 25 25 25 25 25 24 24 24 23 23 23 22 22 21 21 20 19 19 18 18 17 17 17 17 17 17 18 18 18 18 18 18 18 19 20 21 22 23 23 23 23 23 23 23
19 20 21 22 22 22 22 22 22 22 22 22 21 21 21 22 22 23 23 24 24 24 24 24 25 24 24 24 24 24 23 23 23 23 22 22 22 21 21 21 20 20 19 18 18 18 18 18 18 18 18 19 19 19 19 19 19 20 20 21 22 22 23 24 24 24 24 24 25
19 19 20 21 22 22 22 22 22 22 22 22 21 21 21 21 22 22 23 23 23 23 23 23 24 24 24 23 23 23 23 22 22 22 22 21 21 21 20 20 20 19 18 18 18 18 18 18 19 19 19 20 20 20 20 20 20 21 21 22 22 23 24 24 25 25 25 26 26
19 19 20 21 21 22 22 23 23 23 22 22 21 21 21 21 21 22 22 22 22 22 22 23 23 23 23 23 23 23 22 22 22 21 21 21 20 20 19 19 19 18 18 18 18 18 18 19 19 20 20 21 21 21 21 21 21 21 22 22 23 24 24 25 25 25 26 26 27
19 19 20 20 21 22 22 22 22 22 22 22 21 21 21 21 21 21 21 22 22 22 22 22 22 23 23 23 23 22 22 21 21 20 20 20 19 19 19 18 18 18 17 17 18 18 18 19 20 20 21 22 22 22 22 22 22 22 23 23 24 24 25 25 26 26 27 27 28
19 19 20 20 21 21 21 22 22 22 21 21 21 20 20 20 21 21 21 21 21 22 22 22 22 22 22 22 22 22 21 20 20 20 19 19 19 19 18 18 18 17 17 18 18 18 19 20 20 21 22 22 23 23 23 23 23 23 23 24 24 25 26 26 26 27 27 28 28
18 19 19 20 20 20 21 21 21 21 20 20 20 20 20 20 20 21 21 21 21 21 21 21 21 21 21 21 21 20 20 19 19 19 19 18 18 18 18 18 17 18 18 18 19 19 20 21 21 22 23 23 24 24 24 23 23 24 24 25 25 26 27 27 27 28 28 29 29
17 18 18 19 19 19 20 20 20 20 19 19 19 20 20 20 20 20 20 20 20 20 20 20 20 20 20 19 19 18 18 18 18 18 18 18 18 17 17 17 17 18 18 19 20 20 21 22 23 23 24 25 25 25 25 24 24 24 25 25 26 27 28 28 29 29 29 30 30
16 17 17 18 18 18 19 19 19 19 18 18 19 19 20 20 20 20 20 20 20 20 19 19 18 18 17 17 16 16 16 16 16 16 16 16 17 17 17 17 17 18 19 20 21 21 22 23 24 25 25 26 26 26 26 25 25 25 25 26 27 28 29 29 30 30 30 30 30
15 15 16 16 17 17 17 18 18 18 18 18 19 19 20 20 20 20 20 20 20 19 19 18 17 17 16 15 15 15 15 15 15 15 15 16 16 16 17 17 18 19 19 20 21 22 23 24 25 25 26 26 27 26 26 25 25 25 26 27 28 28 29 30 30 30 30 30 30
14 15 15 15 16 16 16 17 17 18 18 19 19 19 19 19 19 19 19 19 19 19 18 17 16 16 15 15 14 14 14 14 14 14 15 15 16 16 17 18 18 19 20 21 21 22 23 24 25 25 26 26 26 26 26 25 25 26 26 27 27 28 29 29 29 29 28 28 28
13 14 14 14 15 15 15 16 17 18 18 18 19 19 19 19 19 19 19 19 18 18 17 17 16 16 15 15 14 14 14 14 14 14 15 15 16 17 17 18 19 20 21 21 22 23 24 24 25 25 26 25 25 25 25 25 26 26 26 27 27 27 28 28 28 28 28 27 27
12 12 13 13 14 14 15 16 17 17 18 18 18 18 18 18 18 18 18 18 17 17 16 16 16 15 15 14 14 14 14 14 14 15 15 16 17 17 18 19 20 21 22 23 23 24 24 24 24 24 24 25 25 25 25 26 26 26 26 26 27 27 27 27 28 28 28 27 27
11 11 12 12 13 14 15 16 17 17 18 17 17 17 17 17 17 17 16 16 16 15 15 15 15 15 14 13 13 14 14 14 15 15 16 16 17 18 19 20 21 22 23 24 24 24 25 24 24 23 23 23 24 25 25 26 26 26 26 26 26 26 27 27 27 27 28 28 27
10 11 11 12 13 14 15 16 16 16 16 16 16 16 16 16 16 15 15 15 15 15 15 14 14 14 13 13 13 13 14 14 15 15 16 17 18 19 20 21 22 23 24 24 24 25 25 25 24 24 23 23 24 25 25 26 26 26 26 26 26 27 27 27 27 27 27 27 27
9 10 11 12 13 14 14 15 15 15 15 15 15 15 15 14 14 14 14 14 14 14 13 13 13 12 12 12 13 13 14 14 15 16 17 18 19 21 22 22 23 24 24 24 24 25 25 25 25 24 24 24 25 25 26 27 27 27 27 27 27 27 27 27 27 27 27 27 27
9 10 11 11 12 12 13 13 13 13 13 13 13 13 13 13 13 13 13 13 12 12 11 11 11 11 11 11 12 13 13 14 15 17 18 19 20 22 23 23 24 24 24 24 24 24 25 25 25 25 25 25 26 26 27 28 28 28 28 28 28 28 28 28 28 28 28 28 28
8 9 10 10 11 11 11 11 11 11 11 11 12 12 12 12 12 12 12 11 11 10 10 10 10 10 10 11 12 13 14 15 17 18 19 20 21 22 23 24 24 24 24 24 24 25 25 25 26 26 26 26 27 27 28 28 29 29 29 29 29 29 29 29 29 29 29 29 29
7 8 9 9 9 10 10 10 10 10 10 10 10 11 11 11 11 11 10 10 10 9 9 9 9 10 10 11 13 14 15 17 18 19 20 20 21 22 23 24 24 24 24 24 25 25 26 26 26 27 27 27 27 27 28 29 29 29 29 29 29 29 29 29 29 29 29 29 29
6 7 8 8 8 9 9 9 9 9 9 9 9 9 10 10 10 10 10 9 9 8 8 8 9 10 11 13 14 15 17 18 19 20 20 21 21 22 23 24 25 25 25 25 26 26 26 26 26 26 26 26 26 27 28 29 29 29 29 29 30 29 29 29 29 29 30 30 29
5 6 8 8 8 9 9 9 9 8 8 8 8 8 9 9 9 9 8 8 7 7 7 8 10 11 13 14 15 17 18 19 20 20 21 21 21 22 23 25 26 26 26 26 26 26 26 26 26 26 26 26 27 27 28 29 29 29 29 30 30 30 30 29 29 29 29 29 29
6 7 8 8 8 9 9 9 9 8 8 8 8 8 8 8 7 6 6 5 6 7 9 10 12 13 15 16 17 18 19 20 21 21 21 22 22 23 24 26 27 27 27 27 27 27 27 26 26 26 26 26 27 27 28 28 29 29 29 29 29 30 30 29 29 29 29 29 29
7 8 9 9 9 9 9 9 9 8 8 7 7 6 5 4 4 4 5 6 8 9 11 12 14 15 16 17 18 19 19 20 20 21 22 22 23 24 25 26 27 27 27 26 26 26 26 26 26 26 26 26 27 28 28 29 29 29 29 29 29 29 29 29 29 28 28 28 28
8 8 9 9 9 9 8 8 8 7 6 5 4 2 2 3 4 5 7 8 10 11 13 14 15 16 17 18 19 19 20 20 20 21 22 23 23 24 25 26 27 27 27 26 26 26 26 26 26 25 25 26 27 28 29 29 29 29 29 29 29 29 29 28 28 28 27 27 27
9 9 9 9 8 8 7 6 6 5 4 2 1 1 2 4 5 7 8 10 11 13 14 15 16 17 18 18 18 19 20 20 20 21 22 23 23 24 24 26 27 27 27 26 26 26 27 27 27 26 26 27 28 29 29 29 29 29 29 29 29 28 28 28 27 27 27 27 26
10 9 9 9 8 8 7 6 5 3 2 1 1 2 3 5 7 9 10 12 13 14 15 16 17 18 18 18 18 19 20 21 21 21 22 23 23 24 25 26 27 28 28 28 27 28 28 28 28 28 27 27 28 29 29 29 29 29 29 29 28 28 27 27 26 26 26 26 26
11 11 10 10 9 8 7 6 4 2 1 2 3 5 6 8 9 10 12 13 13 14 15 16 17 18 18 18 19 19 21 22 22 22 22 23 24 24 25 26 27 28 29 29 29 29 29 29 29 28 27 27 28 29 29 29 29 29 29 29 29 28 27 27 26 26 25 26 26
Wind_Direction
200 202 204 207 205 202 199 198 198 199 199 198 197 197 198 198 199 200 202 204 206 209 213 215 218 218 218 218 216 215 215 215 215 214 214 214 215 216 216 216 217 218 220 222 222 221 221 224 229 233 237 242 246 252 259 265 271 276 281 284 284 285 284 283 281 279 276 272 272
201 203 205 205 203 200 197 196 197 199 200 201 200 200 200 200 200 201 203 206 209 213 216 218 219 219 219 219 218 217 216 216 216 215 215 214 215 216 217 217 218 219 221 223 223 222 223 225 229 234 238 244 248 255 263 270 276 279 282 283 283 283 282 280 278 277 275 274 271
201 202 203 202 199 196 194 194 196 198 200 201 201 202 202 202 203 204 206 209 212 215 217 218 219 220 220 220 220 219 217 217 217 216 215 214 214 216 217 217 218 219 220 222 224 224 225 227 232 236 240 245 252 258 264 270 275 278 280 281 281 280 278 276 275 275 274 274 272
201 201 201 198 196 194 193 194 196 198 199 200 201 202 203 204 205 207 210 212 213 215 217 218 219 220 220 220 220 219 218 218 217 217 215 214 214 215 217 218 219 219 220 222 223 225 226 229 233 237 242 247 253 259 263 266 269 271 274 277 277 276 275 275 275 275 274 273 272
201 201 200 197 196 195 195 196 197 199 200 200 200 201 202 204 206 208 210 211 212 214 217 219 220 220 220 221 220 219 218 217 217 216 215 214 214 215 217 219 219 220 220 221 223 225 226 229 233 237 242 248 253 258 261 262 261 263 266 270 271 273 274 275 275 275 275 273 272
200 200 199 197 196 196 197 198 200 201 201 201 200 201 202 204 205 207 208 210 213 215 218 219 219 219 219 219 219 218 217 216 216 215 214 213 214 215 217 219 220 221 221 222 223 225 226 229 232 237 242 247 252 256 259 260 259 260 262 264 266 269 271 272 274 275 274 272 271
198 198 197 196 196 196 197 199 200 201 202 201 201 202 203 204 205 207 210 212 214 215 215 216 216 216 217 217 217 216 215 214 214 214 213 212 213 215 217 218 220 221 222 222 224 224 226 229 232 236 242 246 251 256 258 260 261 262 263 265 266 268 269 269 272 272 271 269 268
197 197 197 196 197 197 199 200 200 201 201 202 204 205 206 207 207 209 211 212 213 213 214 214 215 216 216 216 215 215 214 213 212 212 212 212 213 215 217 218 219 221 222 223 224 225 227 230 233 238 242 247 251 255 258 260 262 264 266 268 269 269 268 268 268 268 267 267 267
196 197 197 197 198 199 200 201 201 202 203 205 207 208 209 209 210 210 211 211 213 214 214 213 214 215 216 216 215 214 213 212 211 210 210 211 213 215 217 218 219 220 222 224 226 227 229 232 236 240 244 248 251 255 257 259 261 263 267 269 270 269 269 268 267 266 265 265 266
197 197 198 197 198 200 201 202 204 206 208 209 210 210 211 211 212 212 213 214 214 214 214 213 214 214 214 215 215 214 213 212 211 210 210 211 213 215 217 218 219 220 222 224 226 229 231 234 238 242 245 249 251 253 255 256 258 261 265 268 269 270 270 269 268 266 265 265 264
199 200 200 199 200 201 202 202 205 207 210 211 211 211 211 212 213 214 215 216 214 214 214 214 213 213 213 214 214 214 214 213 212 211 210 211 213 216 218 219 220 221 222 225 227 230 232 236 240 243 246 249 251 252 253 254 256 260 263 266 268 269 270 270 269 268 266 265 264
202 202 203 203 203 203 203 204 205 207 210 211 212 211 212 213 214 215 215 215 214 214 214 215 214 213 213 213 214 214 214 213 212 211 211 212 214 216 219 221 222 223 225 226 229 231 234 238 241 244 246 249 250 251 252 254 256 259 262 265 267 268 269 270 270 269 268 266 265
204 205 205 206 206 206 206 206 207 208 210 211 212 212 212 213 214 214 213 213 214 214 214 214 214 214 214 213 213 213 213 213 213 212 212 213 215 216 219 221 223 224 226 228 231 234 237 240 243 245 247 249 250 252 252 254 256 259 262 265 266 267 268 270 271 271 269 267 265
206 207 208 208 209 209 209 208 208 209 210 211 212 212 212 212 213 212 212 212 213 213 212 212 212 213 214 214 213 213 213 213 213 213 213 214 215 217 219 222 224 225 227 229 232 236 239 242 245 247 249 250 252 253 254 255 257 259 262 264 265 267 269 271 271 271 269 266 265
207 209 210 211 211 211 211 210 210 210 211 211 212 212 211 211 210 210 210 211 212 212 212 210 210 211 212 213 213 213 213 213 213 213 214 215 216 218 220 223 225 227 229 230 234 237 241 244 247 249 251 253 254 255 256 257 258 261 263 265 266 268 269 270 271 269 267 265 264
208 210 211 212 212 212 212 212 211 211 211 211 211 211 210 209 208 207 207 208 209 210 210 210 209 209 210 211 212 213 213 214 214 215 215 216 218 220 222 225 227 229 231 232 235 238 242 246 249 251 253 255 257 258 259 260 262 263 265 266 267 268 269 269 269 268 267 266 264
209 210 211 212 213 213 213 213 213 212 212 211 210 208 208 207 206 205 205 206 207 208 208 209 209 208 208 209 211 213 214 214 215 216 217 219 221 223 225 227 229 232 234 236 238 240 243 246 249 252 254 256 258 259 261 263 265 267 268 269 269 269 269 269 269 268 267 266 265
209 210 212 212 213 214 214 214 214 213 212 211 209 207 206 206 205 204 204 206 206 207 208 209 209 209 208 208 210 212 214 215 217 218 220 222 224 226 228 231 233 235 238 241 243 245 247 248 250 252 254 255 257 260 262 265 267 269 271 272 272 271 271 270 270 269 268 267 267
210 211 212 213 213 214 215 215 214 213 212 210 208 206 205 205 204 203 203 204 207 208 209 209 209 209 210 210 211 212 215 217 219 221 223 225 227 229 232 234 236 238 241 244 248 251 252 253 253 253 254 255 257 259 262 265 268 271 273 273 274 273 273 272 272 271 270 270 270
211 213 214 214 214 214 214 214 214 213 211 210 208 206 205 204 204 203 202 203 206 209 210 210 209 209 210 211 212 213 216 219 222 225 226 228 230 232 234 236 238 240 243 247 250 253 255 256 256 255 255 255 257 260 263 266 269 271 273 274 274 274 274 274 274 274 273 273 272
213 214 216 215 215 214 214 214 213 212 211 209 207 206 205 205 205 204 203 204 205 207 209 211 211 211 211 212 213 216 219 223 226 229 231 233 235 236 238 240 241 243 245 248 251 254 256 257 257 257 257 257 259 261 264 266 269 271 272 273 273 273 274 274 274 274 274 274 274
215 216 216 215 214 213 213 213 212 210 209 208 207 207 206 206 206 205 203 203 204 206 208 210 212 213 214 215 217 221 224 228 231 234 236 239 241 242 244 245 245 247 248 250 253 256 258 259 259 259 259 260 262 264 266 267 269 270 271 271 271 272 272 272 273 273 274 274 275
215 216 215 214 213 212 212 211 210 209 208 207 207 207 207 206 205 203 202 202 203 205 207 210 212 214 217 220 223 227 230 233 236 239 241 244 246 247 248 249 250 251 253 255 257 259 261 262 262 263 263 264 265 266 268 269 270 270 270 270 270 270 270 271 271 272 273 274 275
214 215 214 213 212 211 211 210 208 207 206 206 206 206 205 204 203 202 201 202 203 205 207 209 212 215 219 224 228 232 235 238 240 243 245 247 249 251 252 254 255 257 260 262 264 265 265 266 267 267 267 268 268 269 270 270 270 270 270 270 270 270 271 271 272 272 273 274 275
214 214 214 213 212 211 211 209 207 205 204 204 204 203 203 202 202 201 202 202 204 205 207 209 213 218 222 227 231 236 240 243 245 247 249 251 253 255 256 257 260 263 266 268 269 270 270 270 270 270 270 270 270 270 271 271 271 271 271 272 272 272 273 274 274 274 275 275 275
214 215 215 214 214 212 210 207 204 202 201 201 201 201 200 200 201 202 203 203 204 206 209 212 217 222 226 230 234 238 242 246 249 251 253 255 257 259 260 261 263 267 270 272 273 273 273 273 272 272 271 271 271 271 271 272 273 273 273 273 273 273 273 274 274 275 275 275 275
216 216 216 216 214 211 207 204 201 199 199 199 199 198 198 199 201 202 203 204 205 208 212 217 221 225 229 233 237 240 244 248 252 254 256 259 260 261 263 265 267 270 273 275 276 276 275 273 272 271 270 271 272 272 273 273 274 274 274 273 273 272 272 272 272 273 274 274 274
216 216 215 213 209 205 201 199 196 195 196 197 197 197 197 199 200 202 204 206 209 212 216 220 224 228 232 236 240 244 248 252 255 258 261 263 264 265 267 269 271 273 275 277 276 276 274 272 270 269 267 267 269 271 272 272 272 272 272 271 270 270 269 269 270 270 270 270 270
213 211 208 204 200 197 195 193 192 192 194 195 195 196 197 198 200 203 205 208 212 215 218 222 226 230 234 238 244 249 254 257 261 264 266 267 269 270 272 273 275 276 277 276 275 274 273 271 270 269 267 265 266 267 268 269 269 269 269 268 268 267 267 267 267 267 267 268 268
206 203 199 195 193 191 190 188 189 191 192 193 194 195 197 199 202 205 209 212 215 219 222 225 228 232 237 243 250 255 259 263 267 269 271 271 273 275 277 278 279 279 278 276 274 272 271 270 270 270 269 268 266 266 266 267 268 268 267 267 266 266 266 266 266 266 266 266 266
199 197 194 191 189 187 185 185 187 190 192 194 194 196 199 201 204 208 211 214 217 221 225 228 233 239 245 252 258 262 267 271 273 275 276 276 278 279 281 281 281 281 280 277 275 273 272 271 271 271 271 270 268 267 266 267 268 267 267 266 266 266 265 265 265 264 264 265 265
196 194 191 188 185 184 183 183 185 189 192 194 196 198 201 204 207 210 212 215 216 219 223 230 238 247 256 262 267 272 275 278 279 280 280 281 281 282 282 282 281 280 280 278 276 275 274 273 273 273 273 272 270 268 267 267 268 268 267 266 266 266 266 265 265 264 264 264 264
193 191 188 185 182 181 180 180 183 187 191 194 197 199 201 204 206 208 209 212 215 219 226 237 248 259 267 273 277 280 281 282 283 283 283 282 282 281 281 280 280 280 279 279 278 277 276 276 275 275 274 273 270 269 268 268 268 268 267 266 266 266 266 265 265 265 265 265 265
188 185 181 177 176 174 173 174 177 180 184 187 191 195 199 200 202 204 206 211 217 227 239 252 264 272 277 280 282 282 283 284 284 283 282 281 280 279 278 278 279 279 280 279 279 278 277 277 276 275 274 273 271 269 268 268 268 268 267 267 266 266 266 266 266 266 266 266 266
171 168 165 163 163 163 163 165 167 170 173 176 181 187 194 198 201 204 210 219 232 246 261 271 277 281 282 283 283 283 283 283 283 283 282 280 278 277 277 277 279 280 280 280 279 278 277 276 276 275 274 273 271 269 269 269 269 268 268 267 267 267 267 267 267 266 266 266 266
145 147 148 149 152 154 155 157 159 161 164 169 176 184 191 198 206 215 228 247 264 275 280 283 284 285 285 285 286 286 286 286 286 285 284 283 280 279 278 279 281 281 281 280 279 278 277 276 275 275 274 273 271 270 270 270 270 270 269 269 268 268 268 268 268 267 267 267 267
129 134 138 141 143 146 149 153 155 158 162 169 177 185 195 208 228 251 269 280 286 289 290 291 291 290 291 291 291 291 291 290 289 289 288 287 285 283 282 282 283 283 282 281 280 278 277 276 275 275 274 273 272 272 272 273 272 272 271 270 269 269 269 269 269 268 268 268 267
121 126 131 134 137 141 146 151 155 158 162 169 178 197 238 277 287 290 291 293 294 294 295 295 295 295 295 296 296 296 295 294 292 290 289 289 287 286 284 283 284 284 284 283 281 280 278 277 276 275 274 274 274 275 275 275 274 273 272 272 271 271 270 270 269 269 268 268 268
115 120 124 127 130 134 138 142 145 147 150 151 158 270 298 299 298 297 297 298 298 298 298 298 298 299 300 300 299 298 297 295 293 290 289 287 287 286 284 283 283 284 285 284 283 281 280 279 278 277 276 275 275 276 277 276 275 274 273 273 272 272 271 270 270 269 269 269 268
108 112 113 114 116 117 118 118 120 124 134 157 239 276 288 293 296 299 301 302 303 303 303 303 304 305 305 303 300 298 296 295 292 290 287 286 286 285 284 282 283 283 284 284 283 282 281 280 280 279 278 276 276 276 276 276 275 274 273 273 272 272 271 271 270 269 269 270 270
107 109 111 112 114 114 115 116 120 135 217 279 292 296 299 303 305 306 308 308 308 308 307 307 307 306 305 302 298 295 293 292 291 289 288 287 286 285 284 283 283 284 284 284 284 283 282 282 281 280 278 277 276 276 275 275 274 273 273 272 272 271 271 272 271 270 269 270 271